CAPE
729 566 577 497 782 550 475 598 368 465 373 539 386 237 110 90 0 10 56 4 0 0 0 0 0 0 0 0 0 0 0 0 0 0 0 0 0 0 0 0 0 0
724 703 378 485 478 629 621 778 681 514 432 586 536 445 219 96 6 33 104 48 0 0 0 0 0 0 0 0 0 0 0 0 0 0 0 0 0 0 0 0 0 0
839 873 537 542 403 805 676 589 970 662 437 424 808 608 436 205 28 79 174 63 4 4 0 0 0 0 0 0 0 0 0 0 0 0 0 0 0 0 0 0 0 0
1097 1120 1050 866 537 941 938 554 823 995 683 385 761 760 580 266 74 130 195 127 41 46 9 2 0 0 0 0 0 0 0 0 0 0 0 0 0 0 0 0 0 0
1218 1290 1430 1366 1138 1050 1032 771 743 729 748 568 574 665 608 418 167 115 236 149 138 64 34 14 3 1 0 0 0 1 0 0 0 0 0 0 0 0 0 0 0 0
1235 1202 1193 1275 1067 791 1136 1088 872 763 919 689 818 580 848 580 209 165 204 169 116 157 77 19 5 4 0 0 0 2 0 0 0 0 0 0 0 0 0 0 0 0
1518 1536 1401 1250 835 779 525 934 822 947 827 921 599 312 449 797 526 315 197 178 103 166 95 32 4 7 0 0 0 1 0 0 0 0 0 0 0 0 0 0 0 0
1436 1300 1464 1225 1389 1241 780 730 458 798 961 703 1269 582 202 492 552 494 354 244 123 112 138 75 32 0 0 0 0 0 0 0 0 0 0 0 0 0 0 0 0 0
1103 1473 1044 809 759 847 1224 839 586 538 845 1098 891 678 703 440 348 383 385 312 235 188 132 129 72 4 1 0 0 1 0 0 0 0 0 0 0 0 0 0 0 0
1225 874 1176 743 661 682 799 483 438 516 681 924 950 850 671 665 713 505 290 233 273 254 181 187 128 52 21 0 0 0 0 0 0 0 0 0 0 0 0 0 0 0
1230 1310 1299 1231 952 682 976 928 619 494 403 775 989 1002 823 720 876 743 684 401 339 304 201 202 185 109 47 19 1 0 0 0 0 0 0 0 0 0 0 0 0 0
1328 1240 1314 1350 1478 1472 1364 1058 923 790 621 606 699 648 602 1025 437 437 521 531 349 308 211 197 171 133 117 69 11 0 1 0 0 0 0 0 0 0 0 0 0 0
1057 914 1041 1061 1333 1424 1618 1035 714 483 488 580 626 376 268 523 40 281 252 411 436 299 299 114 74 69 178 160 141 93 0 0 0 0 0 0 0 0 0 0 0 0
417 597 847 991 1176 1262 1284 1378 1253 1048 819 865 821 468 358 589 478 374 365 349 478 456 67 170 137 134 124 133 131 180 209 168 0 0 0 0 0 0 0 0 0 0
20 9 8 12 280 1066 1461 1446 1366 1244 1194 1241 952 761 886 984 815 519 353 294 238 90 212 668 356 191 18 82 105 206 122 216 166 29 0 3 0 0 0 0 0 0
0 4 40 19 19 36 59 215 592 1179 1258 1344 1381 1172 918 779 628 519 366 371 433 432 425 303 494 317 39 15 54 95 63 215 188 60 3 58 22 0 0 140 146 48
0 0 0 0 5 14 20 22 15 165 715 1220 1237 906 724 622 677 643 648 579 423 325 385 404 361 411 239 19 48 50 128 182 192 40 78 44 16 7 127 172 174 164
0 0 0 0 0 0 2 8 48 63 57 98 265 744 986 973 1015 1006 881 878 713 721 606 496 467 429 351 186 79 138 130 221 184 53 55 13 33 104 117 97 3 9
0 0 0 0 0 0 1 1 0 4 16 104 154 294 502 626 694 789 808 911 943 850 887 763 618 510 410 284 224 244 216 184 171 0 73 44 42 36 6 0 0 1
0 0 0 0 1 2 0 1 1 2 25 51 95 179 296 466 629 645 722 735 806 780 785 696 579 511 404 368 371 305 255 198 57 0 14 20 16 0 0 0 0 1
0 0 0 0 0 0 1 1 6 17 25 31 31 73 141 228 294 350 503 540 587 753 652 404 405 450 454 431 383 330 251 116 0 3 4 3 2 0 0 0 2 3
0 0 0 0 0 0 0 0 4 15 21 28 38 80 82 77 114 246 381 520 623 620 623 450 341 352 367 358 363 315 224 0 2 12 9 4 4 3 1 1 4 6
0 0 0 0 0 0 0 0 1 23 32 20 14 63 124 141 113 168 198 260 371 472 396 295 306 324 347 350 315 271 0 0 12 26 17 8 2 2 2 0 0 4
0 0 0 0 0 0 0 0 0 0 0 0 1 5 41 105 133 136 168 200 252 262 288 266 310 332 320 284 257 30 0 0 14 53 36 8 2 2 3 3 4 2
0 0 0 0 0 0 0 0 0 0 0 3 10 13 15 66 70 24 148 14 0 0 121 117 214 263 287 272 216 195 161 100 81 62 35 20 9 7 0 3 2 3
0 0 4 2 1 5 28 27 25 5 4 4 12 6 13 40 57 28 24 0 0 0 0 0 0 72 205 180 164 140 108 68 41 37 13 7 2 2 0 1 8 10
Wind_Speed
20 20 18 18 20 20 20 20 21 21 19 22 22 22 22 nan nan nan nan nan nan nan nan nan nan nan nan nan nan nan nan nan nan nan nan nan nan nan nan nan nan nan
21 20 19 19 18 22 21 19 22 23 20 21 22 22 22 nan nan nan 21 nan nan nan nan nan nan nan nan nan nan nan nan nan nan nan nan nan nan nan nan nan nan nan
21 21 21 20 20 22 24 21 21 24 22 22 23 24 24 23 nan nan 21 nan nan nan nan nan nan nan nan nan nan nan nan nan nan nan nan nan nan nan nan nan nan nan
22 21 22 22 22 22 25 23 21 24 23 23 22 24 25 24 nan 21 21 20 nan nan nan nan nan nan nan nan nan nan nan nan nan nan nan nan nan nan nan nan nan nan
23 23 22 23 23 23 25 25 23 22 22 23 23 23 26 26 23 22 21 20 19 nan nan nan nan nan nan nan nan nan nan nan nan nan nan nan nan nan nan nan nan nan
25 24 24 25 25 23 26 26 25 22 22 23 22 22 23 25 23 22 21 19 17 19 nan nan nan nan nan nan nan nan nan nan nan nan nan nan nan nan nan nan nan nan
29 28 27 28 27 26 28 25 25 24 22 21 21 22 22 23 21 19 19 18 17 16 nan nan nan nan nan nan nan nan nan nan nan nan nan nan nan nan nan nan nan nan
34 31 32 32 30 29 30 32 26 23 20 22 20 19 21 22 22 18 16 17 16 15 16 nan nan nan nan nan nan nan nan nan nan nan nan nan nan nan nan nan nan nan
35 34 35 35 32 30 32 34 30 25 22 21 21 20 21 22 21 21 18 17 15 15 16 17 nan nan nan nan nan nan nan nan nan nan nan nan nan nan nan nan nan nan
36 34 34 36 35 35 36 35 32 28 23 23 22 23 22 22 23 23 22 19 17 16 16 17 18 nan nan nan nan nan nan nan nan nan nan nan nan nan nan nan nan nan
36 33 34 35 38 40 39 38 36 34 28 26 26 25 25 26 25 23 22 21 20 18 17 17 19 20 nan nan nan nan nan nan nan nan nan nan nan nan nan nan nan nan
39 35 34 33 36 38 39 40 40 39 38 33 30 32 33 27 23 21 23 22 21 20 20 20 20 21 22 nan nan nan nan nan nan nan nan nan nan nan nan nan nan nan
39 37 37 35 36 37 37 36 36 36 34 33 34 38 34 28 nan 25 25 24 22 22 22 23 nan nan 24 24 24 nan nan nan nan nan nan nan nan nan nan nan nan nan
43 41 41 41 41 40 41 40 38 37 36 36 37 37 35 33 29 26 26 27 27 26 nan 31 26 23 24 24 25 24 25 24 nan nan nan nan nan nan nan nan nan nan
nan nan nan nan 44 43 43 45 43 41 41 40 39 38 37 35 34 33 33 29 29 nan 22 30 32 31 nan nan 25 24 28 27 29 nan nan nan nan nan nan nan nan nan
nan nan nan nan nan nan nan 46 46 46 44 43 43 42 41 39 38 35 34 35 34 29 28 28 29 35 nan nan nan nan nan 31 33 nan nan nan nan nan nan 38 37 nan
nan nan nan nan nan nan nan nan nan 47 48 46 45 45 45 45 44 41 39 42 47 42 33 32 33 34 34 nan nan nan 32 34 38 nan nan nan nan nan 41 41 41 41
nan nan nan nan nan nan nan nan nan nan nan nan 47 47 48 49 50 48 46 49 51 51 47 44 44 43 40 39 nan 39 44 42 42 nan nan nan nan 42 43 nan nan nan
nan nan nan nan nan nan nan nan nan nan nan 46 46 47 48 49 49 50 49 49 50 50 49 50 48 51 48 44 46 51 53 49 45 nan nan nan nan nan nan nan nan nan
nan nan nan nan nan nan nan nan nan nan nan nan nan 49 49 48 48 49 49 49 49 48 50 51 51 52 51 51 55 56 56 55 nan nan nan nan nan nan nan nan nan nan
nan nan nan nan nan nan nan nan nan nan nan nan nan nan 51 50 50 49 50 50 50 51 51 54 55 53 53 57 58 60 61 61 nan nan nan nan nan nan nan nan nan nan
nan nan nan nan nan nan nan nan nan nan nan nan nan nan nan nan 53 53 51 52 53 54 55 61 58 57 58 59 61 62 65 nan nan nan nan nan nan nan nan nan nan nan
nan nan nan nan nan nan nan nan nan nan nan nan nan nan 53 54 55 56 55 53 54 55 60 63 61 57 58 61 61 62 nan nan nan nan nan nan nan nan nan nan nan nan
nan nan nan nan nan nan nan nan nan nan nan nan nan nan nan 54 56 55 55 53 54 56 63 62 59 59 60 63 64 nan nan nan nan nan nan nan nan nan nan nan nan nan
nan nan nan nan nan nan nan nan nan nan nan nan nan nan nan nan nan nan 53 nan nan nan 63 62 60 59 61 64 65 62 58 nan nan nan nan nan nan nan nan nan nan nan
nan nan nan nan nan nan nan nan nan nan nan nan nan nan nan nan nan nan nan nan nan nan nan nan nan nan 59 65 64 63 59 nan nan nan nan nan nan nan nan nan nan nan
Wind_Direction
283 285 290 291 291 288 286 284 287 282 283 282 282 281 281 nan nan nan nan nan nan nan nan nan nan nan nan nan nan nan nan nan nan nan nan nan nan nan nan nan nan nan
288 289 292 291 287 286 284 283 283 282 282 281 283 282 281 nan nan nan 281 nan nan nan nan nan nan nan nan nan nan nan nan nan nan nan nan nan nan nan nan nan nan nan
288 289 293 292 289 284 285 281 276 280 280 278 279 282 282 282 nan nan 282 nan nan nan nan nan nan nan nan nan nan nan nan nan nan nan nan nan nan nan nan nan nan nan
284 285 288 289 285 279 280 279 274 276 277 278 277 282 284 285 nan 284 282 284 nan nan nan nan nan nan nan nan nan nan nan nan nan nan nan nan nan nan nan nan nan nan
276 277 277 277 276 272 274 275 274 272 274 278 279 283 288 289 291 289 287 286 284 nan nan nan nan nan nan nan nan nan nan nan nan nan nan nan nan nan nan nan nan nan
270 273 272 269 266 261 260 263 265 264 267 271 275 279 283 290 293 295 295 292 289 288 nan nan nan nan nan nan nan nan nan nan nan nan nan nan nan nan nan nan nan nan
267 266 267 267 267 262 262 258 256 253 252 261 272 276 276 282 287 291 297 296 296 294 nan nan nan nan nan nan nan nan nan nan nan nan nan nan nan nan nan nan nan nan
262 261 260 258 258 260 260 255 246 252 256 255 256 271 283 282 285 278 279 289 293 292 290 nan nan nan nan nan nan nan nan nan nan nan nan nan nan nan nan nan nan nan
260 261 263 264 263 264 263 261 258 247 242 255 257 255 264 274 281 284 277 274 279 278 282 285 nan nan nan nan nan nan nan nan nan nan nan nan nan nan nan nan nan nan
267 268 269 272 271 268 269 272 272 272 265 260 258 262 263 259 259 266 277 278 274 276 280 282 285 nan nan nan nan nan nan nan nan nan nan nan nan nan nan nan nan nan
265 266 271 272 271 269 267 272 277 276 274 265 260 265 266 260 258 259 262 267 271 275 279 280 282 283 nan nan nan nan nan nan nan nan nan nan nan nan nan nan nan nan
259 263 269 271 270 268 270 271 273 275 276 272 272 268 260 264 274 265 261 259 259 267 271 271 272 274 276 nan nan nan nan nan nan nan nan nan nan nan nan nan nan nan
264 264 263 263 264 266 270 272 269 269 274 277 273 273 279 280 nan 267 262 258 254 255 263 261 nan nan 266 268 274 nan nan nan nan nan nan nan nan nan nan nan nan nan
264 266 267 266 267 266 268 270 270 272 277 279 275 275 277 280 280 278 272 267 262 258 nan 255 258 257 251 251 261 263 269 273 nan nan nan nan nan nan nan nan nan nan
nan nan nan nan 271 272 272 274 273 272 273 275 278 278 275 275 269 263 264 264 257 nan 255 253 255 257 nan nan 246 253 262 269 270 nan nan nan nan nan nan nan nan nan
nan nan nan nan nan nan nan 266 271 276 275 274 277 278 277 275 273 269 263 261 264 268 263 254 255 258 nan nan nan nan nan 264 265 nan nan nan nan nan nan 272 273 nan
nan nan nan nan nan nan nan nan nan 267 270 275 275 275 275 275 275 276 272 269 273 279 281 275 269 268 273 nan nan nan 281 271 268 nan nan nan nan nan 271 273 274 276
nan nan nan nan nan nan nan nan nan nan nan nan 265 268 271 272 274 275 273 273 276 280 280 277 275 276 280 275 nan 288 282 275 271 nan nan nan nan 271 272 nan nan nan
nan nan nan nan nan nan nan nan nan nan nan 267 266 265 265 267 268 270 272 272 274 276 277 276 274 278 281 282 283 281 281 277 273 nan nan nan nan nan nan nan nan nan
nan nan nan nan nan nan nan nan nan nan nan nan nan 268 268 267 269 270 271 273 274 274 275 275 275 281 285 286 285 285 282 276 nan nan nan nan nan nan nan nan nan nan
nan nan nan nan nan nan nan nan nan nan nan nan nan nan 267 270 272 271 271 273 273 274 275 275 278 284 284 284 285 283 281 274 nan nan nan nan nan nan nan nan nan nan
nan nan nan nan nan nan nan nan nan nan nan nan nan nan nan nan 266 269 271 272 274 274 273 273 278 282 282 281 280 279 276 nan nan nan nan nan nan nan nan nan nan nan
nan nan nan nan nan nan nan nan nan nan nan nan nan nan 259 261 264 266 268 269 270 272 272 274 275 277 280 281 279 279 nan nan nan nan nan nan nan nan nan nan nan nan
nan nan nan nan nan nan nan nan nan nan nan nan nan nan nan 262 263 265 267 269 268 268 272 273 274 274 277 276 276 nan nan nan nan nan nan nan nan nan nan nan nan nan
nan nan nan nan nan nan nan nan nan nan nan nan nan nan nan nan nan nan 265 nan nan nan 271 271 271 272 276 276 271 269 270 nan nan nan nan nan nan nan nan nan nan nan
nan nan nan nan nan nan nan nan nan nan nan nan nan nan nan nan nan nan nan nan nan nan nan nan nan nan 274 273 271 268 267 nan nan nan nan nan nan nan nan nan nan nan